DW9584 Weather Reports


time (UTC)temp
F
wind
direction
speed
knots
gust
knots
rain 1hr
in
rain 24hr
in
rain mn
in
humidity
%
barometer
mb
20260505093022 57 250 0.0 0.0 0.00 0.00 0.00 82 1010.9
20260505091529 57 250 0.0 1.7 0.00 0.00 0.00 82 1011.0
20260505090036 57 193 0.0 1.7 0.00 0.00 0.00 83 1011.0
20260505084515 57 236 0.0 0.9 0.00 0.00 0.00 84 1010.8
20260505083013 57 234 0.0 1.7 0.00 0.00 0.00 83 1010.9
20260505081535 58 203 0.0 1.7 0.00 0.00 0.00 81 1010.9
20260505080044 58 220 0.0 0.9 0.00 0.00 0.00 79 1010.8
20260505074528 57 209 0.0 1.7 0.00 0.00 0.00 80 1010.9
20260505073022 57 240 0.0 1.7 0.00 0.00 0.00 79 1010.9
20260505071526 58 282 0.0 1.7 0.00 0.00 0.00 78 1010.9
20260505070022 57 229 0.0 1.7 0.00 0.00 0.00 78 1010.8
20260505064517 56 195 0.0 0.0 0.00 0.00 0.00 78 1010.8
20260505063023 56 195 0.0 1.7 0.00 0.00 0.00 78 1010.8
20260505061516 56 195 0.0 1.7 0.00 0.00 0.00 76 1010.9
20260505060016 56 199 0.0 1.7 0.00 0.00 0.00 75 1011.0
20260505054509 56 199 0.0 0.0 0.00 0.00 0.00 75 1011.0
20260505053013 57 199 0.0 1.7 0.00 0.00 0.00 74 1011.0
20260505051504 57 101 0.0 0.0 0.00 0.00 0.00 72 1011.1
20260505041531 58 359 0.0 1.7 0.00 0.00 0.00 67 1011.0
20260505040012 58 7 0.0 0.0 0.00 0.00 0.00 65 1011.0
20260505034510 58 7 0.0 0.0 0.00 0.00 0.00 65 1011.1
20260505033007 58 7 0.0 0.0 0.00 0.00 0.00 63 1011.1
20260505031527 58 345 0.0 1.7 0.00 0.00 0.00 63 1011.1
20260505030024 57 79 0.0 0.0 0.00 0.00 0.00 63 1010.9
20260505024525 57 79 0.0 0.0 0.00 0.00 0.00 66 1011.2
20260505023021 57 79 0.0 0.0 0.00 0.00 0.00 67 1011.3
20260505021516 58 79 0.0 0.0 0.00 0.00 0.00 65 1011.3
20260505020017 58 79 0.0 0.0 0.00 0.00 0.00 63 1011.2
20260505014512 59 79 0.0 0.0 0.00 0.00 0.00 61 1011.0
20260505013027 60 79 0.0 0.0 0.00 0.00 0.00 58 1011.0
20260505011531 62 79 0.0 0.0 0.00 0.00 0.00 55 1011.0
20260505010027 63 79 0.0 0.9 0.00 0.00 0.00 52 1010.8
20260505004533 63 79 0.0 1.7 0.00 0.00 0.00 49 1010.7
20260505003021 64 82 0.0 1.7 0.00 0.00 0.00 47 1010.5
20260505001518 66 73 0.0 1.7 0.00 0.00 0.00 44 1010.4
20260505000027 67 221 0.0 1.7 0.00 0.00 0.00 44 1010.2
20260504234516 68 243 0.0 2.6 0.00 0.00 0.00 41 1010.1
20260504233027 68 170 0.9 2.6 0.00 0.00 0.00 41 1010.1
20260504231528 69 195 0.9 3.5 0.00 0.00 0.00 39 1010.1
20260504230028 69 152 0.0 4.3 0.00 0.00 0.00 39 1010.0
20260504224528 70 243 0.9 4.3 0.00 0.00 0.00 38 1010.0
20260504223023 70 229 0.9 10.4 0.00 0.00 0.00 37 1010.1
20260504221522 71 248 0.9 3.5 0.00 0.00 0.00 39 1010.1
20260504220018 71 290 0.9 10.4 0.00 0.00 0.00 36 1010.2
20260504214527 72 193 1.7 7.0 0.00 0.00 0.00 35 1010.2
20260504213047 71 123 0.9 4.3 0.00 0.00 0.00 37 1010.2
20260504211516 71 224 0.9 4.3 0.00 0.00 0.00 35 1010.2
20260504210011 72 162 0.9 5.2 0.00 0.00 0.00 36 1010.2
20260504204508 72 253 1.7 7.0 0.00 0.00 0.00 36 1010.3
20260504203008 72 53 0.9 5.2 0.00 0.00 0.00 34 1010.5
20260504201531 72 190 1.7 8.7 0.00 0.00 0.00 35 1010.6
20260504200024 71 165 1.7 6.1 0.00 0.00 0.00 35 1010.8
20260504194521 72 219 1.7 7.0 0.00 0.00 0.00 34 1010.8
20260504193016 71 218 0.0 5.2 0.00 0.00 0.00 36 1010.9
20260504191518 71 174 1.7 7.8 0.00 0.00 0.00 37 1011.0
20260504190013 71 157 1.7 6.1 0.00 0.00 0.00 35 1011.1
20260504184511 71 167 1.7 12.2 0.00 0.00 0.00 33 1011.4
20260504183028 71 128 0.9 7.8 0.00 0.00 0.00 34 1011.5
20260504181527 71 159 1.7 10.4 0.00 0.00 0.00 36 1011.8
20260504180024 71 179 1.7 5.2 0.00 0.00 0.00 35 1011.9
20260504174522 70 281 0.0 6.1 0.00 0.00 0.00 38 1012.1
20260504173031 70 293 1.7 7.8 0.00 0.00 0.00 33 1012.4
20260504171522 70 232 0.9 5.2 0.00 0.00 0.00 32 1012.6